Sobat POKER ONLINE - Agen DEWAPOKER Indonesia Terpercaya SOBAT POKER88

Jackpot

Texas Poker Multi Jackpot System

Kini Telah hadir Jackpot SUPER ROYAL FLUSH

Kini Telah hadir Jackpot 2000 (khusus table VIP keatas).

Ikutilah global jackpot yang tersedia di system kami, dengan system jackpot terbaru dan pertama di indonesia, anda dapat membeli jackpot dengan harga 100 rupiah saja dan menangkan hadiahnya hingga puluhan juta rupiah.

Jackpot bukanlah suatu keharusan untuk dibeli, namun kami memberikan suatu fitur tambahan untuk member tercinta dari www.sobatpoker.com.

Terdapat tiga pilihan harga jackpot yang bisa anda beli yaitu :100,500,1000 dan 2000(khusus table VIP Keatas) rupiah.

Hadiah dari Multi jackpot system www.sobatpoker.com

  1. full house x 10 harga jackpot yang anda beli.
      (contoh:anda membeli 1000 maka:1000 X10 = 10.000)
  2. four of kind x 250 harga jackpot yang anda beli
      (contoh:anda membeli 1000 maka:1000 X250 = 250.000)
  3. Straight flush x 1200
      (contoh:anda membeli 1000 maka:1000 X1200 = 1.200.000)
  4. Royal flush x 10000 harga jackpot yang anda beli
      (contoh:anda membeli 1000 maka:1000 X10000 = 10.000.000)
  5. SUPER ROYAL FLUSH x 30000 harga jackpot yang anda beli
      (contoh:anda membeli 1000 maka:1000 X30000 = 30.000.000)

Kondisi kartu

  1. full house adalah kondisi kartu dimana kartu anda dan kartu tengah dengan total 7 kartu bisa mendapatkan nilai 5 kartu dengan kombinasi 1 tris(three of kind) dan 1 pair, contoh 3 kartu 10 dan 2 kartu 5
  2. Four of kind adalah kondisi kartu dimana kartu anda dan kartu tengah dengan total 7 kartu bisa mendapatkan nilai 5 kartu dengan kombinasi 4 kartu yang sama jumlah dan 1 kartu apapun juga contoh anda mendapatkan 4 buah kartu angka 3 dan 1 kartu apapun.
  3. Staright flush adalah kondisi kartu dimana kartu anda dan kartu tengah dengan total 7 kartu bisa mendapatkan nilai 5 kartu dengan kombinasi seri / staright dengan kembang yang sama contoh : urutan kartu dari angka 5, 6, 7, 8 , 9 10 dengan kembang yg sama misalnya as hati
  4. Royal flush adalah kondisi kartu dimana kartu anda dan kartu tengah dengan total 7 kartu bisa mendapatkan nilai 5 kartu dengan kombinasi seri / staright dengan kembang yang sama tetapi kartu tersebut haruslah dimulai dari 10. contoh 10, Queen, Jack, King dan aces dengan kembang yang sama
  5. Super Royal flush adalah kondisi kartu dimana Kedua kartu anda digabung dengan 3 kartu pertama meja haruslah royal flush. contoh kartu anda 10,Queen kembang sama dan 3 kartu pertama meja adalah Jack, King dan aces dengan kembang yang sama

Demikian adalah penjelasan dari Multi Jackpot www.sobatpoker.com terima kasih dan selamat bermain salam hoki dari kami

Texas Poker Jackpot Winner

TOP SUPER ROYAL FLUSH
No.TanggalNamaPriceWin
115/08 10:23DONKRAYSuper Royal flush30,000,000
215/08 09:49AGUS12121Super Royal flush3,000,000
315/08 08:05LARAS93Super Royal flush15,000,000
415/08 07:46APUY62Super Royal flush30,000,000
515/08 06:39E2E3UNKUT0Super Royal flush30,000,000
TOP ROYAL FLUSH
No.TanggalNamaPriceWin
115/08 10:36NEKES18Royal flush1,000,000
215/08 10:35G4RINGRoyal flush5,000,000
315/08 10:21OMBOB1988Royal flush2,000,000
415/08 08:57KOROGANRoyal flush20,000,000
515/08 08:57NUW808Royal flush2,000,000
TOP STRAIGHT FLUSH
No.TanggalNamaPriceWin
115/08 10:38B18ANYANK383Straight Flush1,200,000
215/08 10:37BUNNY25Straight Flush120,000
315/08 10:37DIPAKSA99Straight Flush60,000
415/08 10:37BBEF0F9EStraight Flush240,000
515/08 10:37IDNGEL39Straight Flush240,000
LATEST JACKPOT
No.TanggalNamaPriceWin
115/08 10:41VGOMARIF5Full House1,000
215/08 10:41D4DUT135Full House5,000
315/08 10:41CMENFull House5,000
415/08 10:41N4UR4216Full House5,000
515/08 10:41BLOODWARSFull House20,000
615/08 10:41DOLOP2Full House1,000
715/08 10:41A119DDCFFull House5,000
815/08 10:41P1411C4MX9Full House10,000
915/08 10:41TATTIT0TFull House10,000
1015/08 10:41MRSD75Full House10,000
1115/08 10:41DONIDONCEKFull House1,000
1215/08 10:41JJRR122Full House1,000
1315/08 10:41W4SREWFull House1,000
1415/08 10:41HERMAN_37Full House5,000
1515/08 10:41FA013Full House2,000
1615/08 10:41KIPPIFull House1,000
1715/08 10:41JAYAAAFull House10,000
1815/08 10:41JONOKYUFull House20,000
1915/08 10:41PANSHA01Full House500
2015/08 10:41ANTOK12345Full House10,000
2115/08 10:41PETERR779Full House20,000
2215/08 10:41G4PLXD4YM4Full House5,000
2315/08 10:41VGOGEPENG5Full House2,000
2415/08 10:41D620836EFull House2,000
2515/08 10:41RUJIBA86Full House5,000
2615/08 10:41LS1XP7U7R7Full House2,000
2715/08 10:41RIZZA10Full House2,000
2815/08 10:41FALYNSTIFull House5,000
2915/08 10:41H1SV5O80VMFull House10,000
3015/08 10:41GALON5555Full House5,000
3115/08 10:41TEMPOS78Full House5,000
3215/08 10:41MEILOFull House5,000
3315/08 10:41GALES11Full House2,000
3415/08 10:41HARY_88Full House20,000
3515/08 10:41CIMENG09Full House2,000
3615/08 10:40KARUT18Four Of A Kind125,000
3715/08 10:40BWO0OM0NTFFull House2,000
3815/08 10:40RAUXZFPVE4Full House5,000
3915/08 10:40MY1NC33SSFull House5,000
4015/08 10:40SHEN_CANFull House5,000
4115/08 10:40WARIORS7Full House5,000
4215/08 10:40KODOKSS83Full House5,000
4315/08 10:40DWTALIFIA24Full House2,000
4415/08 10:40PANJK11Full House2,000
4515/08 10:40VALIRWARAFull House1,000
4615/08 10:40SMPN139Full House2,000
4715/08 10:40ASYIF4KUFull House1,000
4815/08 10:40WISMA_HPFull House10,000
4915/08 10:40OPENGFull House20,000
5015/08 10:40AL_D0012Full House2,000

Domino Multi Jackpot System

Ikutilah global jackpot yang tersedia di system kami, dengan system jackpot terbaru dan pertama di indonesia, anda dapat membeli jackpot dengan harga 100 rupiah saja dan menangkan hadiahnya hingga puluhan juta rupiah.

Jackpot bukanlah suatu keharusan untuk dibeli, namun kami memberikan suatu fitur tambahan untuk member tercinta dari www.sobatpoker.com.

Terdapat tiga pilihan harga jackpot yang bisa anda beli yaitu :100,500 dan 1000 rupiah.

Hadiah dari Multi jackpot system www.sobatpoker.com

  1. Murni Kecil x 50 harga jackpot yang anda beli.
      (contoh:anda membeli 1000 maka:1000 X 50 = 50.000)
  2. Murni Besar x 50 harga jackpot yang anda beli
      (contoh:anda membeli 1000 maka:1000 X 50 = 50.000)
  3. BALAK x 100 harga jackpot yang anda beli
      (contoh:anda membeli 1000 maka:1000 X 100 = 100.000)
  4. ENAM DEWA x 6666 harga jackpot yang anda beli
      (contoh:anda membeli 1000 maka:1000 X 6666 = 6.666.000)

Demikian adalah penjelasan dari Multi Jackpot www.sobatpoker.com terima kasih dan selamat bermain salam hoki dari kami

Domino Jackpot Winner

TOP ENAM DEWA
No.TanggalNamaPriceWin
115/08 10:05THEDUURSmurni enam6,666,000
215/08 08:34SAENG01murni enam3,333,000
315/08 07:42GUJITXXXmurni enam3,333,000
415/08 06:53TOMPELOO1murni enam6,666,000
515/08 05:10SAEUTIK14murni enam6,666,000
TOP BALAK
No.TanggalNamaPriceWin
115/08 10:37AYBAYbalak100,000
215/08 10:33MAKIBO7balak10,000
315/08 10:27MASBOIIbalak10,000
415/08 10:21KUNCLUNG99balak100,000
515/08 10:20SO1818balak100,000
LATEST JACKPOT
No.TanggalNamaPriceWin
115/08 10:41RINSO222murni kecil50,000
215/08 10:41COMME1murni kecil50,000
315/08 10:40MAIL999murni kecil25,000
415/08 10:40SBUNGO99murni besar50,000
515/08 10:39GOOSIPmurni besar50,000
615/08 10:37AYBAYbalak100,000
715/08 10:37KUD73murni kecil50,000
815/08 10:34UMMAT69murni kecil50,000
915/08 10:34JOKOZQQlucky9910,000
1015/08 10:33QQSISWANmurni kecil50,000
1115/08 10:33ONCOJI41murni kecil25,000
1215/08 10:33IFCMFCCM7Tmurni besar50,000
1315/08 10:33MAKIBO7balak10,000
1415/08 10:30SEPTI212murni besar25,000
1515/08 10:30BONBIN69murni besar25,000
1615/08 10:29JJ2234murni besar50,000
1715/08 10:29ARUNG7murni kecil50,000
1815/08 10:27MASBOIIbalak10,000
1915/08 10:26FAVIN_JPmurni kecil25,000
2015/08 10:26LANCAH229lucky9910,000
2115/08 10:26TOMY745murni besar25,000
2215/08 10:25BALENO2002murni kecil50,000
2315/08 10:24DANAR14murni kecil25,000
2415/08 10:24PENJAHATEXmurni kecil50,000
2515/08 10:23LANDOENKmurni besar50,000
2615/08 10:23B8B1C786murni kecil5,000
2715/08 10:22SQUITAmurni kecil5,000
2815/08 10:22SILA0512murni besar5,000
2915/08 10:22TANJOENG96murni besar5,000
3015/08 10:21KUNCLUNG99balak100,000
3115/08 10:21BA4SS6Z3N0murni besar5,000
3215/08 10:21SQUITAmurni besar5,000
3315/08 10:20SO1818balak100,000
3415/08 10:20BENNY113balak50,000
3515/08 10:18PENJAHATEXmurni besar50,000
3615/08 10:18O012345murni besar50,000
3715/08 10:18IWANAMRUL1lucky99200,000
3815/08 10:17HAYEYmurni besar50,000
3915/08 10:15ASKADILAbalak100,000
4015/08 10:15BRUTO8murni kecil50,000
4115/08 10:14MAKIBO7murni besar5,000
4215/08 10:13JJ2234balak100,000
4315/08 10:12SETIABGZmurni besar50,000
4415/08 10:12SENYUM_Qlucky992,500
4515/08 10:11ROJACKSEmurni kecil50,000
4615/08 10:11DECIPER86murni kecil50,000
4715/08 10:10AS1810murni besar50,000
4815/08 10:10THEDUURSbalak100,000
4915/08 10:09VARIO1406murni besar50,000
5015/08 10:09BERIKOPPmurni besar50,000

Ceme Multi Jackpot System

Jackpot dilihat dari gabungan kartu pemain dengan kartu bandar. Bandar harus membeli jackpot sebanyak jumlah player yang sedang duduk. Sebagai contoh bila terdapat 3 pemain duduk bermain, dan bandar memutuskan untuk membeli jackpot Rp 1.000, maka pada periode tersebut bandar akan membeli jackpot sebanyak 3xRp1.000 = Rp3.000.

Jackpot bukanlah suatu keharusan untuk dibeli, namun kami memberikan suatu fitur tambahan untuk member tercinta dari www.sobatpoker.com.

Terdapat tiga pilihan harga jackpot yang bisa anda beli yaitu :100,500 dan 1000 rupiah.

Hadiah dari Multi jackpot system www.sobatpoker.com

  1. Murni Kecil x 50 harga jackpot yang anda beli.
      (contoh:anda membeli 1000 maka:1000 X 50 = 50.000)
  2. Murni Besar x 50 harga jackpot yang anda beli
      (contoh:anda membeli 1000 maka:1000 X 50 = 50.000)
  3. BALAK x 200 harga jackpot yang anda beli
      (contoh:anda membeli 1000 maka:1000 X 200 = 200.000)
  4. ENAM DEWA x 6666 harga jackpot yang anda beli
      (contoh:anda membeli 1000 maka:1000 X 6666 = 6.666.000)

Demikian adalah penjelasan dari Multi Jackpot www.sobatpoker.com terima kasih dan selamat bermain salam hoki dari kami

Ceme Jackpot Winner

TOP ENAM DEWA
No.TanggalNamaPriceWin
115/08 10:40BAMBUT77murni enam6,666,000
215/08 10:36UKUNGmurni enam6,666,000
315/08 10:17PLM1795murni enam6,666,000
415/08 10:17TORRY81murni enam6,666,000
515/08 09:47JELITAAAAmurni enam6,666,000
TOP BALAK
No.TanggalNamaPriceWin
115/08 10:41MYLUCKY0balak200,000
215/08 10:41YONGMI19balak200,000
315/08 10:39C04IROSAKTI724balak200,000
415/08 10:39AGUS_1312balak200,000
515/08 10:39ROVIDIOTSbalak20,000
LATEST JACKPOT
No.TanggalNamaPriceWin
115/08 10:41ARDHA27murni besar5,000
215/08 10:41PONK69murni kecil50,000
315/08 10:41G4R3NGmurni besar25,000
415/08 10:41NGUY1414murni besar50,000
515/08 10:41AMAR47murni besar25,000
615/08 10:41ORANGE32murni besar5,000
715/08 10:41MYLUCKY0balak200,000
815/08 10:41YONGMI19balak200,000
915/08 10:41ATM_SALDOmurni besar5,000
1015/08 10:40VERNANDA11murni besar50,000
1115/08 10:40NANUS85murni besar50,000
1215/08 10:40KDJ2murni kecil50,000
1315/08 10:40BAMBUT77murni enam6,666,000
1415/08 10:39TOLOY91murni besar50,000
1515/08 10:39SANTO89murni besar50,000
1615/08 10:39AGUSGAOKmurni kecil25,000
1715/08 10:39YOO59murni besar50,000
1815/08 10:39MH52murni kecil5,000
1915/08 10:39C04IROSAKTI724balak200,000
2015/08 10:39NGANCUT123murni kecil25,000
2115/08 10:39JOCKY09murni kecil50,000
2215/08 10:39S4T03murni besar50,000
2315/08 10:39MUZI9999murni kecil25,000
2415/08 10:39AGUS_1312balak200,000
2515/08 10:39ROVIDIOTSbalak20,000
2615/08 10:39B48NG72672murni kecil5,000
2715/08 10:39RAFBIL31murni besar25,000
2815/08 10:39SEMERBAKmurni besar25,000
2915/08 10:39NOVALDIASKmurni kecil50,000
3015/08 10:39TARMIDI09murni kecil50,000
3115/08 10:38PUKI27murni kecil50,000
3215/08 10:38TUAH_H86murni kecil50,000
3315/08 10:38YOO59murni besar50,000
3415/08 10:38ACIEL08murni besar5,000
3515/08 10:38KHIMCIL188murni besar50,000
3615/08 10:38AMAR47murni kecil25,000
3715/08 10:38DAVID414murni kecil50,000
3815/08 10:38ITEM84murni kecil25,000
3915/08 10:37DORR6666balak200,000
4015/08 10:37A451balak20,000
4115/08 10:37DORR6666murni kecil50,000
4215/08 10:37DWBTTEVE46murni besar50,000
4315/08 10:37EVO4murni kecil5,000
4415/08 10:37COZMO16murni besar50,000
4515/08 10:37RAVE1993murni besar50,000
4615/08 10:37AJJUNmurni besar5,000
4715/08 10:37ANTIBRObalak200,000
4815/08 10:37GRANDONG11murni kecil50,000
4915/08 10:36B01AZARYA919balak200,000
5015/08 10:36RMKUNCUNGbalak200,000